Location: Chircca
(13.7944°S, 72.0608°W)
Time: 06:20:32
(UTC+00:00)

ARIANE 5 R/B - Pass Details

Date: 14 July 2020
Orbit: 254 x 32946 km, 6.4° (Epoch: 13 August)

Event Time Altitude Azimuth Distance (km) Brightness Sun altitude
Exits shadow 08:24:42 26° 45° (NE) 1,674 4.6 -39.5°
Drops below altitude 10° 08:31:22 10° 74° (ENE) 4,745 7.3 -37.9°
Sets 08:41:33 0° 81° (E) 9,053 9.0 -35.6°
